Location: Newark
(7.0858°N, 171.3717°E)
Time: 20:16:34
(UTC+00:00)

Tiros 1 - Pass Details

Date: 28 November 2020
Orbit: 630 x 663 km, 48.4° (Epoch: 18 January)

Event Time Altitude Azimuth Distance (km) Brightness Sun altitude
Rises 11:57:39 0° 332° (NNW) 2,930 - -74.4°
Reaches altitude 10° 12:00:05 10° 339° (NNW) 2,016 - -74.7°
Maximum altitude 12:04:27 41° 50° (NE) 923 - -75.0°
Drops below altitude 10° 12:08:48 10° 120° (ESE) 2,004 - -75.3°
Sets 12:11:13 0° 127° (SE) 2,909 - -75.4°
